Change the Weather History Date:

Monday, December 19, 2011

  Actual Average Record
Temperature  
Mean Temperature 27 °F -  
Max Temperature 37 °F 26 °F 47 °F (1979)
Min Temperature 17 °F 8 °F -22 °F (1983)
Degree Days  
Heating Degree Days 38    
Moisture  
Dew Point 22 °F    
Average Humidity 81    
Maximum Humidity 100    
Minimum Humidity 64    
Precipitation  
Precipitation 0.00 in - - ()
Sea Level Pressure  
Sea Level Pressure 30.09 in    
Wind  
Wind Speed 17 mph (NNW)    
Max Wind Speed 28 mph    
Max Gust Speed 34 mph    
Visibility 10 miles    
Events      
Averages and records for this station are not official NWS values.
T = Trace of Precipitation, MM = Missing Value Source: NWS Daily Summary

Daily Weather History Graph

Daily Weather History Graph

Search for Another Location

Airport or City:

Trip Planner

Search our weather history database for the weather conditions in past years. The results will help you decide how hot, cold, wet, or windy it might be!

Date:

Astronomy

Dec. 19, 2011 Rise Set
Actual Time 7:50 AM CST 4:44 PM CST
Civil Twilight 7:17 AM CST 5:17 PM CST
Nautical Twilight 6:40 AM CST 5:54 PM CST
Astronomical Twilight 6:05 AM CST 6:29 PM CST
Moon 1:54 AM CST (12/19) 12:50 PM CST (12/19)
Length of Visible Light 10h 00m
Length of Day
8h 54m
Waning Crescent, 31% of the Moon is Illuminated
Dec 19
Waning Crescent
Dec 24
New
Jan 1
First Quarter
Jan 9
Full
Jan 16
Last Quarter

Hourly Weather History & Observations

Time (CST) Temp. Windchill Dew Point Humidity Pressure Visibility Wind Dir Wind Speed Gust Speed Precip Events Conditions
12:12 AM 35.6 °F 26.6 °F 30.2 °F 81% 29.79 in 10.0 mi NW 13.8 mph - N/A   Clear
12:32 AM 37.4 °F 27.8 °F 30.2 °F 75% 29.80 in 10.0 mi NW 17.3 mph - N/A   Clear
12:53 AM 37.4 °F - 30.2 °F 75% 29.81 in 10.0 mi Calm Calm - N/A   Clear
1:12 AM 35.6 °F 25.9 °F 30.2 °F 81% 29.81 in 10.0 mi NNW 16.1 mph - N/A   Clear
1:32 AM 35.6 °F 25.5 °F 30.2 °F 81% 29.82 in 10.0 mi NNW 17.3 mph - N/A   Clear
1:53 AM 35.6 °F 24.5 °F 30.2 °F 81% 29.83 in 10.0 mi NNW 20.7 mph 26.5 mph N/A   Clear
2:12 AM 33.8 °F 22.2 °F 30.2 °F 87% 29.84 in 10.0 mi NNW 20.7 mph 26.5 mph N/A   Clear
2:32 AM 32.0 °F 20.1 °F 30.2 °F 93% 29.86 in 10.0 mi NNW 19.6 mph 25.3 mph N/A   Clear
3:12 AM 30.2 °F 17.4 °F 28.4 °F 93% 29.89 in 10.0 mi NNW 20.7 mph 25.3 mph N/A   Clear
3:33 AM 28.4 °F 14.4 °F 28.4 °F 100% 29.90 in 10.0 mi NNW 23.0 mph 26.5 mph N/A   Clear
4:12 AM 30.2 °F 16.5 °F 28.4 °F 93% 29.92 in 10.0 mi NNW 24.2 mph 32.2 mph N/A   Overcast
4:33 AM 28.4 °F 14.1 °F 28.4 °F 100% 29.94 in 10.0 mi NNW 24.2 mph 33.4 mph N/A   Overcast
4:52 AM 28.4 °F 14.1 °F 26.6 °F 93% 29.96 in 10.0 mi NNW 24.2 mph 31.1 mph N/A   Overcast
5:13 AM 28.4 °F 14.4 °F 26.6 °F 93% 29.97 in 10.0 mi NNW 23.0 mph 29.9 mph N/A   Overcast
5:32 AM 28.4 °F 14.4 °F 26.6 °F 93% 29.98 in 10.0 mi NNW 23.0 mph 29.9 mph N/A   Overcast
5:52 AM 28.4 °F 14.7 °F 26.6 °F 93% 29.99 in 10.0 mi NNW 21.9 mph 28.8 mph N/A   Overcast
6:13 AM 26.6 °F 13.1 °F 24.8 °F 93% 30.02 in 10.0 mi NNW 19.6 mph 27.6 mph N/A   Mostly Cloudy
6:32 AM 26.6 °F 12.7 °F 23.0 °F 86% 30.03 in 10.0 mi NNW 20.7 mph 24.2 mph N/A   Scattered Clouds
6:52 AM 26.6 °F 13.4 °F 21.2 °F 80% 30.05 in 10.0 mi NNW 18.4 mph 27.6 mph N/A   Clear
7:13 AM 24.8 °F 11.1 °F 21.2 °F 86% 30.06 in 10.0 mi NNW 18.4 mph 26.5 mph N/A   Clear
7:32 AM 24.8 °F 10.0 °F 21.2 °F 86% 30.07 in 10.0 mi NNW 21.9 mph 25.3 mph N/A   Clear
7:52 AM 24.8 °F 10.7 °F 19.4 °F 80% 30.08 in 10.0 mi NNW 19.6 mph 25.3 mph N/A   Clear
8:13 AM 24.8 °F 10.3 °F 19.4 °F 80% 30.09 in 10.0 mi NNW 20.7 mph 28.8 mph N/A   Clear
8:32 AM 24.8 °F 10.7 °F 19.4 °F 80% 30.11 in 10.0 mi NNW 19.6 mph 25.3 mph N/A   Clear
8:52 AM 24.8 °F 10.7 °F 19.4 °F 80% 30.12 in 10.0 mi NNW 19.6 mph 26.5 mph N/A   Clear
9:12 AM 26.6 °F 12.0 °F 19.4 °F 74% 30.13 in 10.0 mi NNW 23.0 mph 28.8 mph N/A   Clear
9:32 AM 26.6 °F 12.4 °F 21.2 °F 80% 30.14 in 10.0 mi NNW 21.9 mph 29.9 mph N/A   Clear
9:53 AM 28.4 °F 14.4 °F 21.2 °F 74% 30.15 in 10.0 mi NNW 23.0 mph 28.8 mph N/A   Clear
10:12 AM 28.4 °F 14.1 °F 21.2 °F 74% 30.17 in 10.0 mi NNW 24.2 mph 34.5 mph N/A   Clear
10:32 AM 28.4 °F 15.1 °F 21.2 °F 74% 30.17 in 10.0 mi NNW 20.7 mph 32.2 mph N/A   Clear
10:53 AM 28.4 °F 14.4 °F 21.2 °F 74% 30.19 in 10.0 mi NNW 23.0 mph 31.1 mph N/A   Clear
11:12 AM 30.2 °F 15.7 °F 21.2 °F 69% 30.19 in 10.0 mi NNW 27.6 mph 33.4 mph N/A   Clear
11:31 AM 30.2 °F - 21.2 °F 69% 30.18 in 10.0 mi North - - N/A   Clear
11:52 AM 30.2 °F 16.8 °F 21.2 °F 69% 30.18 in 10.0 mi NNW 23.0 mph 31.1 mph N/A   Clear
12:12 PM 30.2 °F 17.1 °F 21.2 °F 69% 30.17 in 10.0 mi NNW 21.9 mph 33.4 mph N/A   Clear
12:33 PM 30.2 °F 16.8 °F 21.2 °F 69% 30.17 in 10.0 mi NNW 23.0 mph 31.1 mph N/A   Clear
1:12 PM 30.2 °F 17.1 °F 21.2 °F 69% 30.17 in 10.0 mi North 21.9 mph 29.9 mph N/A   Scattered Clouds
1:33 PM 30.2 °F 18.1 °F 21.2 °F 69% 30.17 in 10.0 mi NNW 18.4 mph 27.6 mph N/A   Scattered Clouds
1:52 PM 30.2 °F 18.1 °F 23.0 °F 75% 30.17 in 10.0 mi North 18.4 mph 23.0 mph N/A   Mostly Cloudy
2:12 PM 30.2 °F 19.8 °F 21.2 °F 69% 30.17 in 10.0 mi NNW 13.8 mph 21.9 mph N/A   Scattered Clouds
2:33 PM 32.0 °F 19.8 °F 21.2 °F 64% 30.17 in 10.0 mi NNW 20.7 mph 25.3 mph N/A   Scattered Clouds
2:52 PM 32.0 °F 21.2 °F 21.2 °F 64% 30.17 in 10.0 mi North 16.1 mph 24.2 mph N/A   Scattered Clouds
3:12 PM 30.2 °F 18.5 °F 19.4 °F 64% 30.17 in 10.0 mi NNW 17.3 mph 24.2 mph N/A   Clear
3:33 PM 30.2 °F 18.1 °F 19.4 °F 64% 30.18 in 10.0 mi North 18.4 mph 25.3 mph N/A   Clear
3:52 PM 30.2 °F 18.1 °F 19.4 °F 64% 30.19 in 10.0 mi North 18.4 mph 24.2 mph N/A   Clear
4:12 PM 28.4 °F 17.0 °F 19.4 °F 69% 30.21 in 10.0 mi North 15.0 mph 19.6 mph N/A   Clear
4:33 PM 26.6 °F 15.7 °F 19.4 °F 74% 30.21 in 10.0 mi North 12.7 mph - N/A   Clear
4:52 PM 26.6 °F 17.5 °F 19.4 °F 74% 30.22 in 10.0 mi North 9.2 mph - N/A   Clear
5:12 PM 24.8 °F 16.1 °F 19.4 °F 80% 30.23 in 10.0 mi North 8.1 mph - N/A   Clear
5:33 PM 21.2 °F 12.6 °F 17.6 °F 86% 30.24 in 10.0 mi NNW 6.9 mph - N/A   Clear
5:52 PM 21.2 °F 13.6 °F 17.6 °F 86% 30.24 in 10.0 mi NNW 5.8 mph - N/A   Clear
6:12 PM 19.4 °F 11.5 °F 17.6 °F 93% 30.25 in 10.0 mi NNW 5.8 mph - N/A   Clear
6:32 PM 21.2 °F - 17.6 °F 86% 30.26 in 10.0 mi Calm Calm - N/A   Clear
6:52 PM 21.2 °F - 17.6 °F 86% 30.26 in 10.0 mi Calm Calm - N/A   Clear
7:12 PM 19.4 °F 14.3 °F 17.6 °F 93% 30.26 in 10.0 mi NW 3.5 mph - N/A   Clear
7:33 PM 17.6 °F 9.3 °F 15.8 °F 93% 30.25 in 10.0 mi NW 5.8 mph - N/A   Clear
7:52 PM 17.6 °F 8.2 °F 15.8 °F 93% 30.24 in 10.0 mi NNW 6.9 mph - N/A   Clear
8:13 PM 17.6 °F 9.3 °F 15.8 °F 93% 30.24 in 10.0 mi NW 5.8 mph - N/A   Clear
8:32 PM 17.6 °F 10.7 °F 15.8 °F 93% 30.24 in 10.0 mi NW 4.6 mph - N/A   Clear
8:52 PM 17.6 °F 8.2 °F 15.8 °F 93% 30.25 in 10.0 mi NW 6.9 mph - N/A   Clear
9:12 PM 15.8 °F 6.1 °F 14.0 °F 93% 30.26 in 10.0 mi NNW 6.9 mph - N/A   Clear
9:32 PM 15.8 °F 6.1 °F 14.0 °F 93% 30.26 in 10.0 mi NNW 6.9 mph - N/A   Clear
9:52 PM 15.8 °F 6.1 °F 14.0 °F 93% 30.25 in 10.0 mi NW 6.9 mph - N/A   Clear
10:13 PM 15.8 °F 7.2 °F 12.2 °F 86% 30.25 in 10.0 mi NNW 5.8 mph - N/A   Clear
10:32 PM 15.8 °F - 12.2 °F 86% 30.24 in 10.0 mi Calm Calm - N/A   Clear
10:52 PM 15.8 °F - 12.2 °F 86% 30.24 in 10.0 mi Calm Calm - N/A   Clear
11:12 PM 15.8 °F - 14.0 °F 93% 30.23 in 10.0 mi Calm Calm - N/A   Clear
11:32 PM 15.8 °F - 12.2 °F 86% 30.22 in 10.0 mi Calm Calm - N/A   Clear
11:52 PM 14.0 °F - 12.2 °F 93% 30.23 in 10.0 mi Calm Calm - N/A   Clear